Weather in Kuytun

Russia / Republic of Buryatia     51°31′53″N   107°45′29″E
temp.,
°C
wind,
m/s
gust,
m/s
humid.,
%
clouds,
%
prec.,
mm/h
press.,
hPa
HPBL,
m
23 april, fri
fri2323:00−5nnw1391100 1.7 1036227
02:00−6n1296100 2.3 103944
05:00−6nne2287100 0.0 104047
08:00−3n2464100 0.0 1041384
11:00+1nne3443100 0.0 10391123
14:00+5nne4435100 0.0 10371576
17:00+5nne3432100 0.0 10371554
20:00+2n2241100 0.0 103827
24 april, sat
sat2423:000n2258100 0.0 104051
02:00−1ne2375100 0.1 1039123
05:00−1ne2374100 0.0 1038134
08:00+2ne344999 0.2 1035300
11:00+7ene3535100 0.1 1031818
14:00+12ese5734100 0.1 10251366
17:00+13se3741100 0.0 10221023
20:00+9s1167100 0.0 102212
25 april, sun
sun2523:00+7se1180100 0.0 102216
02:00+6e3587100 1.1 1020147
05:00+5e1187100 0.5 101736
08:00+4nnw2396100 1.7 1017161
11:00+1nw3499100 3.8 1019163
14:00+1nnw3894100 6.3 1019557
17:000nnw3997100 1.6 1019635
20:000nw3990100 2.1 1020748
26 april, mon
mon2623:00−1nnw51385100 0.0 1020698
02:00−3nnw41189100 0.0 1019504
05:00−5nnw3109343 0.0 1020421
08:00−2nnw8147877 0.0 10201024
11:00+1nnw9136896 0.0 10191325
14:00+3nnw91361100 0.1 10181680
17:00+3nnw8136791 0.3 10191526
20:000nw51182100 0.4 1021675
27 april, tue
tue2723:00−2wnw3108889 0.1 1023558
02:00−3nw4119393 0.1 1023700
05:00−2nw51288100 0.2 10241293
08:00−1nw6137099 0.4 10251312
11:00+1nw71056100 0.1 10251738
14:00+2nw81060100 0.3 10231648
17:00+3nw71056100 0.2 10221772
20:00−1wnw238050 0.3 102337